PAKU

Details ICAO PAKU (UUK)
Name Ugnu-Kuparuk
Region USA (Alaska)
Timezone America/Anchorage (UTC-8.0)
Plans Departing 1
Arriving 2
Stats Elevation 67 ft / 20 m (AMSL)
Location 70.330819° -149.597555°
Runways 1
Magnetic Variation 17.320° E
Sunrise Unknown / Unknown
Sunset Unknown / Unknown
Advertisement - Login to hide

Runways

ID Width Length Bearing (true) Bearing (mag) Surface Threshold Offset Overrun Length
05 130 ft / 40 m 6,006 ft / 1,831 m 78.98° 61.66° Gravel 0 ft / 0 m 0 ft / 0 m
23 130 ft / 40 m 6,006 ft / 1,831 m 259.02° 241.70° Gravel 0 ft / 0 m 0 ft / 0 m

Approach Navaids

Runway Type Ident Frequency Range Bearing (true) Bearing (mag) Slope Elevation
05 Localiser IIII 109.70 MHz 18 nm / 33 km 107.90° 90.58° - 67 ft / 20 m (AMSL)

Map

Weather


0- 5 10 15 20 25 30 35+ Temperature / ° C

Clouds and Precipitation
Forecast for 2018-05-24 00:00 UTC. Updated 4 hours ago

Ground ~20,000 ft ~40,000 ft Winds

METAR

PAKU 240245Z 08022KT 7SM R06/P6000FT OVC005 M02/M02 A2983

TAF

Not found
Warning: Do not use this data for real-world aviation or navigation. No guarantee of current accuracy is given.